Date String (YYYY-MM-DD hh:mm:ss) UTC,Instrument flags,Ambient pressure (hPa),Sample flow (lpm),Bypass flow (lpm),Sample temperature (°C),Ambient temperature (°C),ASC tube jacket temperature (°C),LED temperature (°C),Box temperature (°C),Sample RH (%),Span deviation,Mass concentration (μg/m³),Mass concentration (μg/m³),Mass concentration (μg/m³)
DateTimeUTC,F1_M11,P_M11,Q1_M11,Q2_M11,T1_M11,T2_M11,T3_M11,T4_M11,T5_M11,U1_M11,ZSPAN_M11,X0_M11,X2_M11,X1_M11
2023-01-11 23:00:00,,0823.2,5.00,0.00,22.2,20.9,00.0,31.1,24.0,21.2,0000.0,0006.18,0005.23,0005.16
2023-01-11 23:01:00,,0823.2,4.99,0.00,22.2,20.9,00.0,31.1,24.0,21.2,0000.0,0006.09,0005.17,0005.10
2023-01-11 23:02:00,,0823.3,5.00,0.00,22.2,21.0,00.0,31.1,24.0,21.1,0000.0,0005.96,0005.10,0005.03
2023-01-11 23:03:00,,0823.4,5.00,0.00,22.2,21.0,00.0,31.1,24.0,21.1,0000.0,0005.84,0005.02,0004.96
2023-01-11 23:04:00,,0823.4,5.01,0.00,22.2,21.0,00.0,31.1,24.0,21.1,0000.0,0005.71,0004.94,0004.88
2023-01-11 23:05:00,,0823.4,5.01,0.00,22.2,21.0,00.0,31.1,24.0,21.2,0000.0,0005.59,0004.86,0004.81
2023-01-11 23:06:00,,0823.4,5.00,0.00,22.2,21.0,00.0,31.1,24.0,21.2,0000.0,0005.44,0004.80,0004.76
2023-01-11 23:07:00,,0823.3,5.00,0.00,22.3,21.1,00.0,31.1,24.0,21.2,0000.0,0005.36,0004.76,0004.73
2023-01-11 23:08:00,,0823.4,5.00,0.00,22.3,21.1,00.0,31.1,24.0,21.1,0000.0,0005.29,0004.72,0004.69
2023-01-11 23:09:00,,0823.3,5.00,0.00,22.3,21.1,00.0,31.1,24.0,21.1,0000.0,0005.25,0004.68,0004.65
2023-01-11 23:10:00,,0823.4,5.00,0.00,22.3,21.1,00.0,31.1,24.0,21.0,0000.0,0005.19,0004.65,0004.62
2023-01-11 23:11:00,,0823.4,5.00,0.00,22.3,21.2,00.0,31.1,24.0,21.0,0000.0,0005.18,0004.65,0004.61
2023-01-11 23:12:00,,0823.5,5.00,0.00,22.3,21.2,00.0,31.1,24.1,21.0,0000.0,0005.15,0004.63,0004.60
2023-01-11 23:13:00,,0823.5,4.99,0.00,22.3,21.2,00.0,31.2,24.1,21.0,0000.0,0005.15,0004.63,0004.60
2023-01-11 23:14:00,,0823.5,5.00,0.00,22.3,21.2,00.0,31.2,24.1,21.0,0000.0,0005.20,0004.65,0004.60
2023-01-11 23:15:00,,0823.5,4.99,0.00,22.3,21.2,00.0,31.2,24.1,21.0,0000.0,0005.24,0004.66,0004.61
2023-01-11 23:16:00,,0823.6,5.00,0.00,22.3,21.1,00.0,31.2,24.1,21.0,0000.0,0005.26,0004.66,0004.61
2023-01-11 23:17:00,,0823.6,4.99,0.00,22.3,21.0,00.0,31.2,24.1,21.0,0000.0,0005.22,0004.64,0004.58
2023-01-11 23:18:00,,0823.6,4.99,0.00,22.3,21.0,00.0,31.2,24.1,21.0,0000.0,0005.26,0004.63,0004.56
2023-01-11 23:19:00,,0823.6,5.00,0.00,22.3,20.9,00.0,31.2,24.0,21.0,0000.0,0005.28,0004.63,0004.56
2023-01-11 23:20:00,,0823.6,5.00,0.00,22.3,21.0,00.0,31.2,24.0,21.0,0000.0,0005.26,0004.63,0004.57
2023-01-11 23:21:00,,0823.7,5.00,0.00,22.3,21.0,00.0,31.2,24.0,21.1,0000.0,0005.31,0004.65,0004.58
2023-01-11 23:22:00,,0823.7,4.99,0.00,22.3,20.9,00.0,31.2,24.0,21.0,0000.0,0005.31,0004.66,0004.59
2023-01-11 23:23:00,,0823.7,4.99,0.00,22.3,21.0,00.0,31.2,24.0,21.0,0000.0,0005.33,0004.67,0004.60
2023-01-11 23:24:00,,0823.6,5.00,0.00,22.3,21.0,00.0,31.2,24.0,21.0,0000.0,0005.35,0004.69,0004.62
2023-01-11 23:25:00,,0823.7,5.01,0.00,22.3,21.0,00.0,31.2,24.0,21.1,0000.0,0005.32,0004.72,0004.65
2023-01-11 23:26:00,,0823.7,5.00,0.00,22.3,20.9,00.0,31.2,24.0,21.1,0000.0,0005.30,0004.73,0004.68
2023-01-11 23:27:00,,0823.7,5.01,0.00,22.3,20.9,00.0,31.2,24.0,21.1,0000.0,0005.32,0004.76,0004.71
2023-01-11 23:28:00,,0823.7,5.00,0.00,22.3,20.9,00.0,31.2,24.0,21.1,0000.0,0005.36,0004.80,0004.75
2023-01-11 23:29:00,,0823.7,5.00,0.00,22.2,20.9,00.0,31.1,24.0,21.1,0000.0,0005.40,0004.84,0004.80
2023-01-11 23:30:00,,0823.7,5.00,0.00,22.2,20.8,00.0,31.1,24.0,21.1,0000.0,0005.43,0004.89,0004.84
2023-01-11 23:31:00,,0823.7,5.00,0.00,22.2,20.8,00.0,31.1,24.0,21.2,0000.0,0005.52,0004.94,0004.90
2023-01-11 23:32:00,,0823.7,4.99,0.00,22.2,20.8,00.0,31.1,24.0,21.3,0000.0,0006.22,0005.01,0004.98
2023-01-11 23:33:00,,0823.7,5.00,0.00,22.2,20.8,00.0,31.1,24.0,21.3,0000.0,0007.38,0005.12,0005.08
2023-01-11 23:34:00,,0823.8,5.00,0.00,22.2,20.8,00.0,31.1,24.0,21.3,0000.0,0007.46,0005.20,0005.16
2023-01-11 23:35:00,,0823.8,5.00,0.00,22.2,20.7,00.0,31.1,24.0,21.2,0000.0,0007.53,0005.29,0005.25
2023-01-11 23:36:00,,0823.8,5.00,0.00,22.2,20.7,00.0,31.1,24.0,21.2,0000.0,0007.61,0005.35,0005.30
2023-01-11 23:37:00,,0823.9,5.00,0.00,22.2,20.7,00.0,31.1,24.0,21.2,0000.0,0007.67,0005.41,0005.34
2023-01-11 23:38:00,,0823.8,5.00,0.00,22.2,20.7,00.0,31.1,24.0,21.2,0000.0,0007.72,0005.47,0005.41
2023-01-11 23:39:00,,0823.8,4.99,0.00,22.2,20.7,00.0,31.1,24.0,21.2,0000.0,0007.76,0005.52,0005.47
2023-01-11 23:40:00,,0823.8,5.01,0.00,22.2,20.7,00.0,31.1,24.0,21.2,0000.0,0007.81,0005.59,0005.53
2023-01-11 23:41:00,,0823.8,5.00,0.00,22.2,20.7,00.0,31.1,23.9,21.3,0000.0,0007.84,0005.63,0005.58
2023-01-11 23:42:00,,0823.9,5.00,0.00,22.1,20.6,00.0,31.1,23.9,21.2,0000.0,0007.98,0005.66,0005.62
2023-01-11 23:43:00,,0823.9,5.01,0.00,22.1,20.7,00.0,31.1,23.9,21.3,0000.0,0007.85,0005.68,0005.63
2023-01-11 23:44:00,,0824.0,5.00,0.00,22.2,21.4,00.0,31.1,24.1,21.2,0000.0,0007.01,0005.68,0005.63
2023-01-11 23:45:00,,0824.0,5.00,0.00,22.3,22.4,00.0,31.1,24.3,21.0,0000.0,0007.00,0005.67,0005.63
2023-01-11 23:46:00,,0824.1,5.00,0.00,22.4,22.7,00.0,31.1,24.5,20.9,0000.0,0007.05,0005.69,0005.64
2023-01-11 23:47:00,,0824.1,4.99,0.00,22.5,22.4,00.0,31.2,24.5,20.9,0000.0,0007.07,0005.71,0005.67
2023-01-11 23:48:00,,0824.1,5.01,0.00,22.5,22.1,00.0,31.2,24.4,20.9,0000.0,0007.08,0005.73,0005.70
2023-01-11 23:49:00,,0824.0,5.01,0.00,22.5,21.9,00.0,31.2,24.4,20.8,0000.0,0007.11,0005.74,0005.71
2023-01-11 23:50:00,,0824.0,4.99,0.00,22.5,21.7,00.0,31.2,24.3,20.8,0000.0,0007.16,0005.76,0005.73
2023-01-11 23:51:00,,0824.1,5.00,0.00,22.5,21.5,00.0,31.3,24.3,20.7,0000.0,0007.19,0005.78,0005.75
2023-01-11 23:52:00,,0824.1,4.99,0.00,22.5,21.4,00.0,31.3,24.3,20.8,0000.0,0007.24,0005.80,0005.77
2023-01-11 23:53:00,,0824.1,5.00,0.00,22.5,21.3,00.0,31.3,24.3,20.8,0000.0,0007.17,0005.82,0005.79
2023-01-11 23:54:00,,0824.1,5.00,0.00,22.5,21.2,00.0,31.3,24.3,20.8,0000.0,0007.07,0005.86,0005.83
2023-01-11 23:55:00,,0824.1,5.00,0.00,22.5,21.2,00.0,31.3,24.3,21.0,0000.0,0007.13,0005.87,0005.83
2023-01-11 23:56:00,,0824.1,5.00,0.00,22.5,21.2,00.0,31.3,24.3,20.8,0000.0,0007.19,0005.89,0005.85
2023-01-11 23:57:00,,0824.1,4.99,0.00,22.5,21.2,00.0,31.3,24.3,20.8,0000.0,0007.29,0005.90,0005.85
2023-01-11 23:58:00,,0824.1,5.00,0.00,22.5,21.2,00.0,31.3,24.3,20.8,0000.0,0007.32,0005.92,0005.86
2023-01-11 23:59:00,,0824.1,5.01,0.00,22.5,21.3,00.0,31.3,24.3,20.7,0000.0,0007.33,0005.93,0005.88
